Location: Lane
(33.5226°N, 79.8788°W)
Time: 23:37:12
(UTC+00:00)

Tiros 1 - Pass Details

Date: 12 October 2022
Orbit: 629 x 662 km, 48.4° (Epoch: 09 December)

Event Time Altitude Azimuth Distance (km) Brightness Sun altitude
Rises 23:56:56 0° 218° (SW) 2,958 11.1 -14.6°
Reaches altitude 10° 23:59:18 10° 214° (SW) 2,054 10.2 -15.1°
Maximum altitude 00:03:56 55° 137° (SE) 788 7.3 -16.1°
Enters shadow 00:06:17 28° 71° (ENE) 1,246 8.1 -16.5°
